sat.trackr.live / text

‹ back to catalog

STARLINK-4695

NORAD 53718 · 2022-107U

PAYLOAD ACTIVE UNKNOWN

§ Identity

Operator
Country
US
Launch date
2022-09-05
Launch site
AFETR
Launch vehicle
Mass (kg)
RCS (m²)

Purposes: comms

External: N2YO · Heavens-Above · Gunter

§ Orbital elements

Epoch: 2026-09-20T02:51:21.537792Z

Period
94.01 min
Inclination
53.1590°
Eccentricity
0.0001247
Mean motion
15.31709810 rev/d
Perigee alt
469.9 km
Apogee alt
471.6 km
Semi-major
6,848.8 km
B*
-4.7128e-5
RAAN
89.5634°
Arg perigee
89.1333°
Mean anomaly
270.9811°
Rev number
22,391

§ Raw data

STARLINK-46951 53718U 22107U   26263.11899928 -.00001828  00000+0 -47128-4 0  99982 53718  53.1590  89.5634 0001247  89.1333 270.9811 15.31709810223915

JSON: /api/v1/satellites/53718 · /tle

For live sub-satellite position, see the globe view (requires WebGL).

§ Visibility from observer

Set your observer location to see the next 7 days of passes ≥ 10°. The values pass through the URL so the page stays shareable.

No JS? Fill the form by hand. The geolocation button needs JavaScript.